Location: downtown San Diego
(32.7310°N, 117.1990°W)
Time: 23:50:59
(UTC-07:00)

Resurs 1-3 - Pass Details

Date: 19 May 2017
Orbit: 630 x 632 km, 98.1° (Epoch: 24 July)

Event Time Altitude Azimuth Distance (km) Brightness Sun altitude
Exits shadow 20:30:11 - 171° (S) 2,913 6.6 -9.4°
Rises 20:30:12 0° 171° (S) 2,907 6.6 -9.4°
Reaches altitude 10° 20:32:24 10° 173° (S) 2,004 5.8 -9.8°
Maximum altitude 20:36:45 73° 258° (WSW) 663 3.8 -10.6°
Drops below altitude 10° 20:41:08 10° 344° (NNW) 2,018 7.0 -11.4°
Sets 20:43:21 0° 346° (NNW) 2,929 7.8 -11.8°
